Wind_Speed
13 12 11 10 9 9 8 8 7 5 4 3 2 1 2 4 5 6 7 9 10 11 11 12 12 11 11 11 10 10 9 9 9 8 8 8 7 7 7 7 6 6 6
12 12 12 11 10 10 10 9 8 6 5 4 3 1 1 3 4 5 7 8 9 10 11 11 11 11 11 11 10 10 10 9 8 8 7 7 7 6 6 6 5 5 5
13 13 13 12 11 10 10 10 8 7 6 5 4 2 1 1 2 4 5 7 8 9 10 10 11 11 11 11 10 10 9 8 7 7 7 7 6 5 5 5 5 4 4
13 13 13 13 12 11 11 10 9 8 7 6 5 3 1 0 2 3 4 6 7 8 8 9 10 10 10 10 9 9 9 7 7 6 6 6 6 5 5 5 4 4 4
11 12 13 13 13 12 11 11 10 9 8 7 5 4 2 1 0 2 3 4 6 7 7 8 8 9 10 10 9 8 8 7 7 6 6 5 5 4 4 4 4 4 4
11 12 12 13 13 13 12 12 11 10 9 8 6 5 3 2 1 0 1 3 4 5 6 6 7 8 8 8 8 8 8 7 6 6 5 5 4 4 3 3 4 4 4
11 11 13 13 13 12 12 12 11 11 10 9 7 5 4 3 2 1 0 1 2 3 4 5 6 6 7 7 7 7 7 7 6 5 5 4 3 3 2 2 2 3 3
12 12 13 13 12 12 12 12 11 11 11 10 8 6 5 4 3 2 1 0 1 2 3 4 4 5 5 6 6 6 6 6 6 5 4 3 2 2 2 1 1 1 2
12 13 13 12 13 12 12 12 12 11 11 10 9 8 6 5 4 3 2 1 0 1 2 3 3 4 4 4 4 4 4 4 4 4 4 2 2 1 1 2 2 2 3
13 12 12 12 13 12 12 12 12 12 11 10 10 9 8 6 5 4 3 3 2 1 1 2 2 3 3 4 4 4 3 3 3 3 3 2 2 3 3 4 4 4 5
14 13 13 12 12 12 13 12 12 12 12 11 10 10 9 8 6 5 4 4 4 3 3 3 3 3 4 4 4 4 4 3 4 3 3 3 4 5 5 5 5 6 6
14 14 14 13 12 13 13 13 13 13 13 12 12 11 10 9 8 7 6 5 5 5 5 5 5 5 5 5 5 5 5 5 5 5 5 6 6 6 7 6 7 7 8
14 14 15 14 14 14 14 14 14 14 13 13 12 12 11 10 10 8 8 7 7 7 6 6 6 6 6 6 6 6 6 6 6 7 7 7 7 8 8 8 9 9 10
14 14 15 15 15 15 15 14 14 14 14 13 13 12 12 11 10 9 9 9 8 8 8 8 8 8 8 8 8 8 7 7 8 8 8 9 9 9 9 10 10 11 12
14 15 15 15 15 15 16 15 15 15 15 15 14 13 13 12 12 11 10 10 10 10 10 10 10 10 10 10 10 9 9 9 9 9 10 10 10 10 11 12 12 13 14
15 15 15 15 15 15 16 16 16 16 16 16 15 14 14 13 13 13 12 12 12 12 12 12 12 12 12 12 11 11 11 11 12 12 12 12 12 12 13 14 15 15 16
15 16 16 15 15 15 16 16 16 16 16 16 16 15 15 15 15 15 14 14 14 14 14 14 14 14 14 14 14 13 13 14 14 14 14 14 14 15 16 17 17 18 18
14 15 15 15 16 16 17 17 17 17 16 16 16 16 16 16 16 16 16 16 16 16 16 16 16 16 16 16 16 16 16 16 16 16 16 17 17 18 19 19 20 20 20
13 14 15 15 16 17 17 17 17 17 17 18 18 17 17 17 17 18 18 18 18 18 18 18 18 18 18 18 18 18 18 19 19 19 19 20 20 21 21 22 22 23 23
12 12 13 14 16 16 17 17 17 18 18 18 18 19 19 19 19 19 20 20 20 20 20 19 19 19 20 20 20 20 21 21 21 22 22 23 23 24 24 24 25 26 26
12 12 13 13 15 15 16 15 16 18 18 19 19 20 20 20 20 20 20 20 20 20 20 21 21 21 21 21 22 22 23 23 24 25 25 26 27 27 27 28 28 29 30
13 13 14 15 15 16 16 17 18 19 19 19 20 20 21 21 21 21 21 21 21 21 22 22 22 22 23 23 24 24 25 25 26 27 28 28 29 30 31 31 32 33 33
15 15 16 17 17 17 18 18 19 19 19 20 20 21 21 21 21 21 22 22 22 22 22 23 23 24 24 25 26 26 27 27 28 29 30 30 31 32 33 34 35 36 36
16 17 17 17 17 17 18 19 19 19 20 20 21 22 22 22 22 22 22 23 23 24 24 25 25 26 26 27 27 28 29 30 31 32 32 33 34 35 36 37 38 38 39
16 17 17 17 17 17 18 19 20 20 21 21 21 22 22 22 23 23 24 24 25 25 26 27 28 28 28 29 29 30 31 32 33 34 34 35 36 37 38 39 40 41 41
17 18 18 18 19 19 19 20 21 21 21 21 22 23 23 24 24 25 25 26 26 27 28 28 29 29 30 31 31 32 32 33 34 35 37 38 39 40 41 42 42 43 43
Wind_Direction
215 212 210 212 214 211 202 200 197 192 182 169 157 106 44 36 39 45 48 48 48 47 47 49 51 55 59 64 72 79 88 98 107 114 121 128 133 138 148 157 163 168 173
216 217 213 212 213 206 200 202 199 198 192 185 182 167 58 41 42 44 48 50 50 49 49 52 55 58 61 64 71 77 83 93 103 111 119 126 131 135 140 148 157 167 175
220 219 214 211 208 203 201 201 199 201 200 197 194 187 160 50 46 46 49 49 49 49 50 53 56 58 60 64 69 74 78 87 96 105 116 122 125 132 137 141 149 156 161
221 216 209 207 204 204 205 203 202 204 204 203 199 199 199 100 54 53 51 48 49 50 51 54 56 57 58 62 66 71 71 79 88 101 112 121 126 130 131 139 149 156 161
222 220 214 209 208 208 208 204 206 207 208 207 202 205 209 211 74 55 49 45 46 50 54 55 55 56 58 58 60 61 64 72 80 92 101 110 121 129 139 144 157 167 173
220 219 215 212 211 210 209 206 207 207 208 207 204 205 209 215 212 61 41 40 45 50 51 53 54 55 56 56 57 56 60 65 74 83 91 98 107 116 132 148 167 176 182
219 213 211 214 215 214 208 207 208 208 208 208 203 204 207 212 218 236 330 27 48 55 50 46 51 53 51 52 55 56 57 62 68 75 83 92 98 105 117 133 167 189 203
217 213 215 217 215 213 211 208 209 211 209 209 207 207 210 213 220 239 256 292 51 52 45 40 43 47 46 47 49 49 51 57 60 60 62 73 80 85 93 103 190 229 233
215 214 215 219 219 215 213 209 209 212 212 214 214 212 215 219 226 236 242 241 266 16 30 31 29 36 38 35 34 34 37 46 49 45 43 38 23 351 323 308 292 284 278
217 216 216 218 217 214 213 212 214 217 216 217 216 217 219 221 227 236 242 246 258 288 335 351 356 358 3 4 7 9 6 1 0 6 7 357 338 325 318 315 305 295 292
216 218 221 221 220 219 218 218 218 218 218 220 222 221 222 222 227 233 240 250 262 276 295 308 317 325 331 334 334 338 336 328 323 321 322 321 319 320 320 312 305 302 299
218 222 223 222 223 223 222 220 220 219 220 222 224 226 229 228 230 234 241 252 260 271 282 293 298 303 308 313 315 314 311 311 310 307 303 300 303 306 311 310 305 302 301
223 224 224 223 225 227 225 222 223 223 223 226 229 231 233 234 235 239 246 253 260 268 275 285 292 295 297 299 302 304 303 303 305 306 305 298 297 299 301 302 302 300 299
227 226 227 226 226 225 226 227 226 225 226 228 230 234 234 236 238 244 252 258 265 270 274 280 286 287 288 292 293 296 298 299 302 302 300 297 296 295 297 297 299 298 298
230 228 228 228 227 226 228 230 228 228 231 234 234 238 240 240 244 249 254 259 264 269 272 277 282 282 284 285 285 287 291 296 298 300 300 298 297 296 297 297 299 298 298
231 229 229 230 231 231 231 231 231 231 232 235 239 243 246 247 248 252 256 260 264 268 273 276 278 279 281 282 281 282 284 289 292 293 294 295 296 297 297 297 299 298 298
232 230 230 231 231 233 233 234 235 234 235 238 240 245 249 250 251 254 258 260 263 268 271 274 276 278 279 279 279 280 282 285 287 289 291 292 294 295 295 294 295 295 294
230 231 232 231 233 234 234 236 238 239 241 243 245 248 252 254 255 257 258 262 265 268 271 273 274 275 277 278 279 279 281 284 286 286 287 289 291 292 293 293 294 294 293
229 231 235 236 236 236 236 235 238 240 243 245 247 250 253 255 256 258 261 265 267 269 271 272 273 274 275 276 278 279 281 283 285 286 287 288 289 291 292 293 293 293 293
235 236 237 237 238 239 239 238 240 244 245 247 250 253 255 258 259 260 264 268 269 270 271 272 273 275 275 275 277 279 281 283 284 285 287 287 288 290 292 292 293 293 292
239 239 240 242 242 242 242 241 244 247 249 250 253 256 260 261 262 263 267 270 272 273 274 275 275 275 276 277 278 279 280 281 283 285 286 287 287 288 289 290 291 292 292
242 241 243 246 247 246 246 248 250 251 253 255 257 259 263 264 265 266 267 270 273 274 276 277 276 276 277 278 279 280 281 282 283 285 286 287 288 288 289 290 290 291 291
247 247 249 248 248 249 250 253 255 254 256 257 258 260 262 264 266 267 268 271 273 274 276 277 278 278 278 279 280 282 282 283 284 285 287 288 289 290 290 290 289 290 290
248 249 251 251 251 252 253 255 256 257 259 259 259 259 261 263 265 266 269 271 273 274 275 277 278 279 279 280 281 282 283 285 286 287 288 288 289 290 290 290 291 290 290
252 252 252 254 255 256 257 258 258 258 259 259 260 260 261 264 266 267 269 272 273 274 275 276 278 279 279 280 282 282 283 285 286 287 287 288 289 290 290 291 291 291 292
256 256 257 258 259 260 261 263 262 260 261 262 263 263 264 266 267 269 271 273 274 274 276 277 278 278 279 280 282 284 285 287 288 288 289 289 290 290 291 291 291 292 293
Height
5886 5888 5890 5891 5892 5894 5895 5896 5896 5897 5897 5897 5897 5896 5895 5894 5893 5891 5889 5887 5886 5884 5882 5880 5878 5876 5875 5874 5872 5871 5871 5870 5870 5871 5871 5872 5872 5873 5874 5875 5875 5876 5877
5885 5886 5888 5890 5891 5892 5893 5895 5896 5896 5896 5897 5897 5896 5896 5895 5894 5892 5890 5889 5887 5885 5883 5882 5880 5879 5877 5876 5875 5874 5873 5873 5872 5873 5873 5874 5875 5874 5875 5875 5876 5877 5877
5883 5884 5886 5888 5890 5891 5892 5894 5895 5896 5896 5896 5896 5896 5896 5895 5894 5893 5892 5890 5888 5887 5885 5884 5882 5881 5880 5879 5877 5876 5875 5875 5874 5874 5874 5875 5875 5876 5876 5876 5877 5877 5878
5881 5883 5884 5886 5888 5889 5891 5892 5894 5895 5895 5896 5896 5896 5896 5895 5895 5894 5893 5891 5890 5888 5887 5886 5885 5883 5882 5881 5879 5878 5877 5876 5875 5874 5874 5875 5876 5876 5877 5877 5877 5878 5878
5879 5881 5883 5885 5887 5888 5890 5891 5893 5894 5895 5895 5896 5896 5896 5895 5895 5894 5893 5892 5891 5890 5889 5888 5887 5885 5884 5883 5881 5880 5879 5877 5876 5875 5875 5876 5876 5877 5877 5877 5878 5878 5878
5878 5879 5881 5883 5885 5886 5888 5890 5891 5892 5893 5894 5895 5895 5895 5895 5895 5895 5894 5893 5892 5891 5890 5889 5888 5887 5886 5885 5883 5882 5880 5879 5878 5877 5877 5877 5877 5877 5878 5878 5878 5878 5878
5876 5877 5879 5882 5883 5885 5886 5888 5890 5891 5892 5893 5894 5894 5895 5895 5895 5895 5894 5894 5893 5892 5891 5890 5889 5888 5887 5886 5885 5884 5882 5881 5880 5879 5878 5878 5878 5878 5878 5878 5878 5878 5878
5874 5876 5878 5880 5881 5883 5885 5887 5888 5890 5891 5892 5893 5894 5894 5894 5895 5895 5894 5894 5893 5893 5892 5891 5890 5889 5888 5887 5886 5885 5884 5883 5882 5881 5880 5880 5879 5879 5878 5878 5878 5878 5878
5872 5874 5876 5878 5880 5881 5883 5885 5887 5888 5890 5891 5892 5893 5893 5894 5894 5894 5894 5894 5893 5893 5892 5891 5891 5890 5889 5888 5887 5886 5885 5884 5883 5882 5881 5881 5880 5879 5879 5878 5878 5878 5877
5870 5872 5874 5876 5877 5879 5881 5883 5885 5886 5888 5889 5890 5892 5892 5893 5893 5894 5894 5893 5893 5893 5892 5891 5891 5890 5889 5889 5888 5887 5886 5885 5884 5883 5882 5881 5880 5879 5878 5877 5877 5876 5876
5868 5870 5872 5874 5875 5877 5879 5881 5883 5884 5886 5888 5889 5890 5891 5892 5892 5892 5892 5893 5892 5892 5892 5891 5890 5890 5889 5888 5887 5886 5885 5885 5884 5882 5881 5880 5880 5879 5878 5877 5876 5875 5874
5866 5868 5870 5872 5873 5875 5877 5879 5880 5882 5884 5886 5887 5888 5889 5890 5891 5891 5891 5891 5891 5891 5891 5890 5889 5889 5888 5887 5887 5886 5885 5884 5883 5882 5880 5879 5879 5878 5876 5875 5874 5873 5872
5863 5865 5867 5869 5871 5873 5874 5876 5878 5880 5882 5883 5885 5886 5887 5888 5889 5889 5889 5890 5890 5889 5889 5889 5888 5887 5887 5886 5885 5884 5883 5882 5881 5880 5879 5878 5877 5876 5875 5874 5872 5871 5870
5861 5863 5864 5866 5868 5870 5872 5873 5875 5877 5879 5881 5882 5883 5885 5886 5886 5887 5887 5888 5888 5887 5887 5887 5886 5886 5885 5884 5884 5883 5882 5881 5880 5879 5877 5876 5875 5874 5873 5871 5870 5868 5867
5858 5860 5862 5863 5865 5867 5869 5871 5873 5875 5876 5878 5879 5881 5882 5883 5884 5884 5885 5885 5885 5885 5885 5884 5884 5884 5883 5882 5881 5881 5880 5879 5878 5876 5875 5874 5873 5871 5870 5869 5867 5866 5864
5855 5857 5859 5860 5862 5864 5866 5868 5869 5871 5873 5875 5876 5877 5879 5880 5880 5881 5882 5882 5882 5882 5882 5882 5881 5881 5880 5879 5879 5878 5877 5876 5875 5874 5873 5871 5870 5869 5867 5865 5864 5862 5860
5852 5853 5855 5857 5859 5861 5863 5864 5866 5868 5870 5871 5873 5874 5875 5876 5877 5878 5878 5879 5879 5879 5878 5878 5878 5877 5877 5876 5876 5875 5874 5873 5872 5871 5869 5868 5867 5865 5863 5862 5860 5858 5856
5848 5850 5852 5854 5855 5857 5859 5861 5862 5864 5866 5867 5869 5870 5871 5872 5873 5874 5874 5874 5874 5874 5874 5874 5873 5873 5873 5872 5871 5871 5870 5869 5868 5867 5865 5864 5862 5861 5859 5857 5855 5853 5851
5845 5847 5848 5850 5852 5853 5855 5857 5858 5860 5862 5864 5865 5866 5866 5867 5868 5869 5869 5870 5870 5870 5869 5869 5869 5868 5868 5867 5867 5866 5865 5864 5863 5862 5860 5859 5857 5856 5854 5852 5849 5847 5845
5842 5843 5845 5846 5848 5849 5851 5853 5854 5856 5858 5859 5860 5861 5862 5863 5864 5864 5864 5865 5865 5865 5864 5864 5863 5863 5862 5862 5861 5860 5860 5859 5858 5857 5855 5853 5851 5850 5847 5845 5843 5841 5838
5839 5840 5841 5843 5844 5846 5847 5849 5850 5852 5853 5854 5855 5856 5857 5858 5858 5859 5859 5859 5859 5859 5859 5858 5858 5857 5857 5856 5855 5854 5853 5853 5851 5850 5848 5847 5845 5843 5840 5838 5836 5833 5831
5835 5836 5837 5839 5840 5841 5843 5845 5846 5847 5848 5849 5850 5851 5852 5852 5853 5853 5853 5853 5853 5853 5853 5852 5852 5851 5850 5849 5849 5848 5847 5845 5844 5843 5841 5839 5837 5835 5833 5830 5828 5825 5822
5831 5832 5833 5834 5836 5837 5838 5839 5840 5841 5843 5844 5845 5845 5846 5846 5847 5847 5847 5847 5847 5846 5846 5846 5845 5844 5843 5842 5841 5840 5839 5838 5836 5835 5833 5830 5828 5826 5824 5821 5818 5815 5812
5827 5828 5829 5830 5831 5832 5833 5834 5835 5836 5837 5838 5838 5839 5839 5840 5840 5840 5840 5840 5840 5840 5839 5839 5838 5837 5836 5835 5833 5832 5831 5829 5827 5826 5823 5821 5819 5816 5813 5810 5807 5804 5801
5822 5823 5824 5825 5826 5827 5828 5829 5829 5830 5831 5831 5832 5832 5833 5833 5833 5834 5833 5833 5833 5832 5832 5831 5830 5829 5828 5827 5825 5823 5822 5820 5819 5816 5814 5811 5809 5806 5803 5799 5796 5792 5789
5817 5818 5819 5820 5821 5822 5822 5823 5824 5824 5824 5825 5825 5825 5826 5826 5826 5826 5826 5825 5825 5824 5823 5822 5822 5820 5819 5817 5816 5814 5812 5810 5808 5806 5803 5800 5797 5794 5791 5787 5784 5780 5776